Regional Weather Roundup
Issued by NWS

Home | Current Version | Previous Version | Text Only | Print | Product List | Glossary Off
Versions: 1 2 3 4 5 6 7 8 9 10 11 12 13 14 15 16 17 18 19 20 21 22 23 24 25 26 27 28 29 30 31 32 33 34 35 36 37 38 39 40 41 42 43 44 45 46 47 48 49 50

000
ASUS43 KLMK 251710
RWRKY
KENTUCKY REGIONAL WEATHER ROUNDUP
NATIONAL WEATHER SERVICE LOUISVILLE KY
100 PM EDT MON SEP 25 2017

NOTE "FAIR" INDICATES FEW OR NO CLOUDS BELOW 12,000 FEET
WITH NO SIGNIFICANT WEATHER AND/OR OBSTRUCTIONS TO VISIBILITY.

KYZ001>023-026-027-061>063-070>075-251800-
WESTERN AND SOUTH CENTRAL KENTUCKY

CITY           SKY/WX    TMP DP  RH WIND       PRES   REMARKS
PADUCAH        PTSUNNY   86  66  51 NE3       30.01F
HENDERSON      SUNNY     87  67  51 W3        30.02F HX  90
OWENSBORO      CLOUDY    86  68  54 VRB3      30.02F
HOPKINSVILLE   SUNNY     87  63  45 CALM      30.03F
BOWLING GREEN  SUNNY     87  66  49 CALM      30.04F
GLASGOW        SUNNY     85  65  51 CALM      30.05F
$$

KYZ024-025-028>034-038-045-046-053-251800-
NORTH CENTRAL KENTUCKY

CITY           SKY/WX    TMP DP  RH WIND       PRES   REMARKS
LOUISVILLE/SDF PTSUNNY   86  67  52 CALM      30.03F
LOUISVILLE/LOU SUNNY     87  70  56 N3        30.04F HX  92
FORT KNOX      SUNNY     85  66  52 CALM      30.03F
$$

KYZ035>037-039>044-047>052-055>060-089>105-251800-
NORTHEAST KENTUCKY

CITY           SKY/WX    TMP DP  RH WIND       PRES   REMARKS
LEXINGTON      MOSUNNY   85  66  53 VRB5      30.07F
COVINGTON      PTSUNNY   84  65  52 W3        30.06F
FRANKFORT      SUNNY     87  65  47 N6        30.05F
$$

KYZ054-064>069-076>088-106>120-251800-
SOUTHEAST KENTUCKY

CITY           SKY/WX    TMP DP  RH WIND       PRES   REMARKS
JACKSON        MOSUNNY   83  64  52 CALM      30.09F
LONDON         MOSUNNY   82  60  47 SW5       30.08F
SOMERSET       MOSUNNY   79  59  50 CALM      30.08F
MIDDLESBORO    MOSUNNY   79  64  59 CALM      30.09F
MONTICELLO     CLOUDY    82  67  60 VRB7      30.08F
$$





USA.gov is the U.S. government's official web portal to all federal, state and local government web resources and services.